This demonstration page uses our WeatherBlox Daily Observations layout. Learn more.

Left ArrowRight Arrow

38.89511, -77.03637

Hourly Observations for May 23, 2017

Temp ( °F °C ) Dew Point ( °F °C ) Humidity (%) Winds ( mph kmh ) Pressure ( in mb ) Visibility ( mi km ) Precip ( " mm )
12:39 am 00:39 Mostly Cloudy 65 18.3 64 17.8 97 97 N 5 7 29.97 1015 10 16 0.00 0.00
12:52 am 00:52 Mostly Cloudy 65 18.3 64 17.8 97 97 NNW 6 9 29.97 1015 10 16 0.00 0.00
12:55 am 00:55 Mostly Cloudy 65 18.3 64 17.8 97 97 N 5 7 29.97 1015 10 16 0.00 0.00
1:42 am 01:42 Mostly Cloudy with Mist and Fog 65 18.3 64 17.8 97 97 Calm 29.94 1014 6 10 0.00 0.00
1:52 am 01:52 Mostly Cloudy 65 18.3 65 18.3 100 100 Calm 29.95 1014 7 11 0.00 0.00
1:59 am 01:59 Mostly Cloudy with Mist and Fog 65 18.3 64 17.8 97 97 E 3 6 29.94 1014 6 10 0.00 0.00
2:06 am 02:06 Partly Cloudy with Mist and Fog 65 18.3 64 17.8 97 97 Calm 29.94 1014 5 8 0.00 0.00
2:52 am 02:52 Mostly Cloudy 64 17.8 62 16.7 93 93 NNW 7 11 29.95 1014 10 16 0.00 0.00
3:52 am 03:52 Mostly Cloudy 63 17.2 59 15 87 87 N 9 15 29.95 1014 10 16 0.00 0.00
4:52 am 04:52 Mostly Cloudy 61 16.1 57 13.9 87 87 N 8 13 29.94 1014 10 16 0.00 0.00
5:52 am 05:52 Cloudy 61 16.1 56 13.3 84 84 NNW 6 9 29.95 1014 10 16 0.00 0.00
6:52 am 06:52 Cloudy 63 17.2 55 12.8 76 76 N 10 17 29.95 1014 10 16 0.00 0.00
7:52 am 07:52 Cloudy 63 17.2 55 12.8 76 76 NNE 8 13 29.95 1014 10 16 0.00 0.00
8:52 am 08:52 Cloudy 63 17.2 56 13.3 78 78 NE 12 19 29.95 1014 10 16 0.00 0.00
9:52 am 09:52 Cloudy 63 17.2 57 13.9 81 81 NNE 7 11 29.97 1015 10 16 0.00 0.00
10:52 am 10:52 Cloudy 65 18.3 58 14.4 78 78 ENE 8 13 29.95 1014 10 16 0.00 0.00
11:52 am 11:52 Cloudy 67 19.4 57 13.9 71 71 ENE 7 11 29.94 1014 10 16 0.00 0.00
12:28 pm 12:28 Cloudy 67 19.4 58 14.4 73 73 E 12 19 29.91 1013 10 16 0.00 0.00
12:52 pm 12:52 Cloudy 66 18.9 59 15 78 78 E 12 19 29.91 1013 10 16 0.00 0.00
1:52 pm 13:52 Cloudy 67 19.4 59 15 76 76 E 6 9 29.90 1013 10 16 0.00 0.00
2:52 pm 14:52 Cloudy 67 19.4 60 15.6 79 79 E 5 7 29.88 1012 10 16 0.00 0.00
3:52 pm 15:52 Cloudy 67 19.4 60 15.6 79 79 E 6 9 29.86 1011 10 16 0.00 0.00
4:52 pm 16:52 Cloudy 67 19.4 60 15.6 79 79 E 10 17 29.83 1010 10 16 0.00 0.00
5:52 pm 17:52 Cloudy with Light Rain 66 18.9 60 15.6 81 81 ESE 8 13 29.82 1010 10 16 0.00 0.03
6:52 pm 18:52 Cloudy with Light Rain 64 17.8 60 15.6 87 87 E 7 11 29.81 1010 6 10 0.01 0.25
7:52 pm 19:52 Cloudy with Light Rain 62 16.7 57 13.9 84 84 E 9 15 29.81 1010 6 10 0.02 0.51
8:14 pm 20:14 Cloudy with Light Rain 61 16.1 56 13.3 84 84 ENE 6 9 29.83 1010 9 14 0.02 0.51
8:52 pm 20:52 Cloudy with Light Rain 60 15.6 57 13.9 90 90 NE 5 7 29.80 1009 10 16 0.03 0.76
9:24 pm 21:24 Cloudy with Light Rain 60 15.6 57 13.9 90 90 NE 6 9 29.80 1009 10 16 0.00 0.03
9:52 pm 21:52 Cloudy 60 15.6 56 13.3 86 86 NE 6 9 29.78 1009 10 16 0.00 0.03
10:52 pm 22:52 Cloudy 61 16.1 57 13.9 87 87 NNE 5 7 29.77 1008 10 16 0.00 0.00
11:14 pm 23:14 Cloudy 61 16.1 57 13.9 87 87 NE 6 9 29.77 1008 10 16 0.00 0.00
11:24 pm 23:24 Cloudy 61 16.1 57 13.9 87 87 NNE 6 9 29.77 1008 10 16 0.00 0.00
11:52 pm 23:52 Cloudy 61 16.1 57 13.9 87 87 N 6 9 29.75 1007 10 16 0.00 0.00

Powered by AerisWeather